Record,Date/Time,10,Freq,Rcvr,Alpha,dTdG,K1,K2,K3,K4,Tnd
     1,07/08/2018 00:00:25,11, 22.000,0, 0.995100,  -499071.65,  0.16543191E+03, -0.15504021E+01,  0.49083044E-02, -0.52730206E-05, 270.52
     2,07/08/2018 00:00:25,11, 22.234,0, 0.997080,  -458725.41,  0.95669020E+02, -0.92484013E+00,  0.30759395E-02, -0.35324078E-05, 235.50
     3,07/08/2018 00:00:25,11, 22.500,0, 0.996000,  -406187.40,  0.25660892E+03, -0.25819544E+01,  0.85485022E-02, -0.92980927E-05, 198.31
     4,07/08/2018 00:00:25,11, 23.000,0, 0.996460,  -386058.84,  0.80322340E+02, -0.69305273E+00,  0.19308656E-02, -0.17107239E-05, 163.06
     5,07/08/2018 00:00:25,11, 23.034,0, 0.997170,  -390667.51,  0.11982393E+02,  0.30545022E-01, -0.60254591E-03,  0.12232425E-05, 162.50
     6,07/08/2018 00:00:25,11, 23.500,0, 0.997550,  -368692.46,  0.99890591E+02, -0.93570264E+00,  0.29523934E-02, -0.31503182E-05, 171.93
     7,07/08/2018 00:00:25,11, 23.834,0, 0.997920,  -376527.84,  0.15890200E+03, -0.15666295E+01,  0.51366914E-02, -0.55998683E-05, 186.14
     8,07/08/2018 00:00:25,11, 24.000,0, 0.996450,  -355334.60,  0.24853953E+03, -0.25184584E+01,  0.84740808E-02, -0.94656113E-05, 195.62
     9,07/08/2018 00:00:25,11, 24.500,0, 0.994550,  -387621.08,  0.83813918E+02, -0.70324691E+00,  0.18990758E-02, -0.16230509E-05, 189.45
    10,07/08/2018 00:00:25,11, 25.000,0, 0.995590,  -365396.41,  0.21502088E+02, -0.16971927E+00,  0.46228154E-03, -0.45763980E-06, 156.76
    11,07/08/2018 00:00:25,11, 25.500,0, 0.997270,  -337460.85,  0.12798899E+03, -0.12846229E+01,  0.42697875E-02, -0.46962759E-05, 138.84
    12,07/08/2018 00:00:25,11, 26.000,0, 0.995340,  -333542.31,  0.74671634E+02, -0.62527339E+00,  0.17409355E-02, -0.16300392E-05, 171.60
    13,07/08/2018 00:00:25,11, 26.234,0, 0.993950,  -322237.97,  0.11519673E+03, -0.10091282E+01,  0.29284075E-02, -0.28221173E-05, 196.28
    14,07/08/2018 00:00:25,11, 26.500,0, 0.993920,  -357546.35, -0.45917317E+02,  0.59695900E+00, -0.23085680E-02,  0.27450808E-05, 228.71
    15,07/08/2018 00:00:25,11, 27.000,0, 0.996280,  -400616.90,  0.18200796E+03, -0.17554716E+01,  0.56489252E-02, -0.60681373E-05, 257.13
    16,07/08/2018 00:00:25,11, 27.500,0, 0.994600,  -367846.26,  0.61900985E+02, -0.37506884E+00,  0.50488044E-03,  0.18075908E-06, 230.96
    17,07/08/2018 00:00:25,11, 28.000,0, 0.994550,  -352210.37,  0.48269270E+02, -0.25583474E+00,  0.27971515E-03,  0.98354210E-07, 235.70
    18,07/08/2018 00:00:25,11, 28.500,0, 0.996090,  -360809.26,  0.24138846E+03, -0.23632637E+01,  0.77497593E-02, -0.85201012E-05, 236.84
    19,07/08/2018 00:00:25,11, 29.000,0, 0.993930,  -358196.95,  0.10568483E+03, -0.95307975E+00,  0.29148993E-02, -0.30519798E-05, 196.84
    20,07/08/2018 00:00:25,11, 29.500,0, 0.991490,  -312519.78, -0.63528261E+02,  0.61795241E+00, -0.19458129E-02,  0.19666623E-05, 106.02
    21,07/08/2018 00:00:25,11, 30.000,0, 0.993370,  -353110.93,  0.15567176E+02, -0.15747733E+00,  0.59272243E-03, -0.80965628E-06, 117.01
Record,Date/Time,30,TkBB(K),Tnd(K) Ch  22.000,R Ch  22.000,Tnd(K) Ch  22.234,R Ch  22.234,Tnd(K) Ch  22.500,R Ch  22.500,Tnd(K) Ch  23.000,R Ch  23.000,Tnd(K) Ch  23.034,R Ch  23.034,Tnd(K) Ch  23.500,R Ch  23.500,Tnd(K) Ch  23.834,R Ch  23.834,Tnd(K) Ch  24.000,R Ch  24.000,Tnd(K) Ch  24.500,R Ch  24.500,Tnd(K) Ch  25.000,R Ch  25.000,Tnd(K) Ch  25.500,R Ch  25.500,Tnd(K) Ch  26.000,R Ch  26.000,Tnd(K) Ch  26.234,R Ch  26.234,Tnd(K) Ch  26.500,R Ch  26.500,Tnd(K) Ch  27.000,R Ch  27.000,Tnd(K) Ch  27.500,R Ch  27.500,Tnd(K) Ch  28.000,R Ch  28.000,Tnd(K) Ch  28.500,R Ch  28.500,Tnd(K) Ch  29.000,R Ch  29.000,Tnd(K) Ch  29.500,R Ch  29.500,Tnd(K) Ch  30.000,R Ch  30.000
Record,Date/Time,20,TkBB(K),Tnd(K) Ch  1,R Ch  1,Tnd(K) Ch  2,R Ch  2,Tnd(K) Ch  3,R Ch  3,Tnd(K) Ch  4,R Ch  4,Tnd(K) Ch  5,R Ch  5
    22,07/08/2018 00:03:16,31,301.693, 271.081, 0.994994, 235.693, 0.996610, 198.991, 0.995846, 163.281, 0.996173, 163.028, 0.996376, 172.184, 0.995976, 186.600, 0.994687, 196.530, 1.000000, 190.409, 0.992927, 157.442, 0.995680, 139.512, 0.992675, 172.210, 0.993801, 197.320, 0.991015, 229.739, 0.990797, 258.782, 0.992170, 232.373, 0.993136, 237.132, 0.991616, 238.689, 0.990746, 198.241, 0.989023, 106.781, 0.991551, 118.004, 0.993509
    23,07/08/2018 00:06:02,31,301.733, 270.859, 0.993729, 235.666, 0.995384, 198.793, 0.995232, 163.232, 0.995487, 162.935, 0.994978, 172.657, 0.994712, 186.425, 0.993796, 196.659, 1.000000, 190.155, 0.992562, 157.522, 0.994309, 139.525, 0.989513, 171.925, 0.991477, 197.220, 0.989758, 229.917, 0.989720, 258.603, 0.991642, 232.321, 0.989039, 236.510, 0.987948, 238.662, 0.990181, 198.314, 0.988363, 106.734, 0.988067, 117.866, 0.990970
    24,07/08/2018 00:08:48,31,301.680, 271.783, 0.992943, 236.175, 0.993810, 199.475, 0.993867, 163.821, 0.993368, 163.481, 0.994384, 172.560, 0.992719, 186.843, 0.991925, 196.690, 1.000000, 190.289, 0.990737, 157.667, 0.992477, 139.683, 0.989837, 172.256, 0.991497, 197.320, 0.986891, 229.774, 0.988005, 258.959, 0.989425, 232.336, 0.988025, 237.152, 0.984739, 238.550, 0.988880, 198.348, 0.989698, 106.969, 0.988106, 117.980, 0.990899
    25,07/08/2018 00:11:33,31,301.679, 271.375, 0.991851, 236.227, 0.993279, 199.030, 0.992115, 163.921, 0.991301, 163.553, 0.992250, 173.056, 0.991295, 187.224, 0.989333, 196.545, 1.000000, 190.648, 0.987522, 158.074, 0.991357, 139.775, 0.986777, 172.573, 0.988770, 197.815, 0.984837, 230.158, 0.986028, 259.335, 0.987961, 232.463, 0.986141, 237.373, 0.984232, 238.854, 0.985080, 198.511, 0.984595, 106.914, 0.986968, 117.954, 0.990001
    26,07/08/2018 00:14:19,31,301.659, 272.368, 0.990400, 237.100, 0.992199, 199.913, 0.991392, 164.040, 0.991663, 163.898, 0.991408, 172.988, 0.991119, 187.432, 0.989968, 197.091, 1.000000, 191.171, 0.987863, 157.840, 0.990638, 139.978, 0.984542, 172.633, 0.986953, 197.892, 0.983840, 230.247, 0.985496, 259.232, 0.987319, 232.728, 0.986051, 237.291, 0.984222, 238.871, 0.984973, 198.498, 0.984804, 107.075, 0.986507, 118.012, 0.989334
    27,07/08/2018 00:17:05,31,301.645, 272.664, 0.990081, 236.856, 0.991538, 200.060, 0.991452, 164.426, 0.990531, 164.364, 0.989933, 173.503, 0.988523, 188.090, 0.987799, 197.588, 1.000000, 191.522, 0.985273, 158.039, 0.988367, 139.956, 0.984184, 173.053, 0.986652, 197.694, 0.981865, 230.693, 0.982156, 259.573, 0.985520, 232.908, 0.985540, 237.231, 0.982907, 238.950, 0.983683, 198.744, 0.986149, 107.020, 0.985160, 118.216, 0.987244
    28,07/08/2018 00:19:51,31,301.642, 273.949, 0.989079, 238.250, 0.991502, 201.083, 0.991343, 165.445, 0.990336, 164.848, 0.991034, 174.240, 0.990384, 188.244, 0.988625, 198.149, 1.000000, 191.498, 0.985332, 158.498, 0.989751, 140.220, 0.984772, 173.162, 0.986774, 198.074, 0.983530, 230.731, 0.982995, 259.479, 0.986245, 233.018, 0.984022, 237.606, 0.983538, 239.212, 0.984872, 198.486, 0.981808, 107.138, 0.983982, 118.208, 0.987192
    29,07/08/2018 00:22:36,31,301.629, 274.469, 0.992495, 239.043, 0.993540, 201.621, 0.993488, 165.463, 0.993434, 165.038, 0.994026, 174.225, 0.992652, 188.619, 0.991342, 198.332, 1.000000, 192.223, 0.989268, 158.908, 0.992242, 140.454, 0.987940, 173.266, 0.989407, 198.136, 0.986868, 231.228, 0.987706, 259.781, 0.989160, 233.082, 0.986658, 237.926, 0.987021, 239.619, 0.988413, 199.229, 0.988649, 107.077, 0.987428, 118.231, 0.989055
    30,07/08/2018 00:25:23,31,301.579, 272.622, 0.991026, 237.192, 0.992653, 200.495, 0.993032, 164.565, 0.992278, 163.996, 0.992929, 173.396, 0.990580, 187.804, 0.989561, 197.600, 1.000000, 191.425, 0.988094, 158.208, 0.990158, 140.183, 0.986632, 173.177, 0.988314, 197.986, 0.987027, 230.281, 0.988117, 259.835, 0.987264, 232.670, 0.986558, 237.199, 0.985738, 238.966, 0.985710, 198.771, 0.987351, 107.104, 0.986942, 118.281, 0.987997
    31,07/08/2018 00:28:08,31,301.627, 272.268, 0.990336, 236.337, 0.992419, 199.318, 0.991731, 163.922, 0.990992, 163.228, 0.992152, 172.761, 0.990483, 187.018, 0.989405, 197.003, 1.000000, 190.417, 0.987261, 157.802, 0.989843, 139.716, 0.984180, 172.543, 0.987965, 197.748, 0.984147, 230.207, 0.986158, 259.063, 0.987656, 232.591, 0.986427, 237.658, 0.983108, 238.880, 0.985641, 198.649, 0.984150, 106.780, 0.984847, 117.899, 0.987462
    32,07/08/2018 00:30:54,31,301.656, 272.640, 0.991148, 237.243, 0.992753, 200.027, 0.991935, 164.332, 0.991742, 163.647, 0.992665, 173.137, 0.991512, 187.496, 0.990423, 197.508, 1.000000, 190.964, 0.988421, 157.940, 0.992599, 139.979, 0.986113, 172.651, 0.989525, 197.737, 0.986445, 230.166, 0.985069, 259.354, 0.987542, 232.386, 0.985540, 237.178, 0.982952, 238.562, 0.984906, 198.579, 0.984829, 106.983, 0.984647, 117.827, 0.985788
    33,07/08/2018 00:33:39,31,301.658, 272.110, 0.990516, 236.992, 0.991733, 200.022, 0.991204, 164.676, 0.990515, 163.822, 0.989704, 173.065, 0.989838, 187.583, 0.988466, 196.977, 1.000000, 191.148, 0.986669, 158.009, 0.988224, 140.026, 0.982978, 172.811, 0.985401, 197.765, 0.984695, 230.603, 0.982253, 258.902, 0.985788, 232.448, 0.984370, 237.155, 0.981267, 238.789, 0.984325, 198.509, 0.985315, 106.884, 0.984522, 117.921, 0.986164
    34,07/08/2018 00:36:26,31,301.672, 272.809, 0.992916, 237.260, 0.993825, 200.085, 0.992959, 163.872, 0.992243, 163.846, 0.993866, 173.180, 0.992594, 187.437, 0.991503, 197.156, 1.000000, 190.809, 0.989452, 157.668, 0.992045, 140.009, 0.986852, 172.446, 0.990630, 197.603, 0.986549, 229.916, 0.987198, 259.085, 0.989871, 232.150, 0.986098, 237.236, 0.984220, 238.950, 0.985612, 198.386, 0.985932, 106.888, 0.986069, 118.000, 0.990227
    35,07/08/2018 00:39:12,31,301.638, 272.005, 0.991765, 236.615, 0.993168, 199.862, 0.993522, 164.301, 0.992972, 163.920, 0.993593, 173.044, 0.992190, 187.047, 0.991082, 196.930, 1.000000, 191.042, 0.988217, 157.618, 0.991043, 139.538, 0.988423, 172.324, 0.990241, 197.614, 0.986190, 230.124, 0.986986, 259.014, 0.988054, 232.166, 0.985623, 236.876, 0.986328, 238.376, 0.987633, 198.582, 0.985587, 106.799, 0.986769, 117.817, 0.989342
    36,07/08/2018 00:41:58,31,301.600, 271.425, 0.992917, 236.312, 0.994961, 199.777, 0.993568, 163.903, 0.992803, 163.138, 0.993588, 172.709, 0.993733, 187.119, 0.992278, 196.387, 1.000000, 190.476, 0.990082, 157.814, 0.992339, 139.561, 0.988827, 172.285, 0.990768, 197.449, 0.988265, 229.812, 0.989660, 258.375, 0.989656, 232.287, 0.987180, 236.954, 0.987311, 238.861, 0.989437, 198.385, 0.987633, 106.960, 0.987467, 118.086, 0.992300
    37,07/08/2018 00:44:45,31,301.588, 272.602, 0.993338, 237.050, 0.994473, 199.798, 0.994207, 164.527, 0.993557, 163.832, 0.994324, 172.997, 0.993090, 187.291, 0.993004, 197.084, 1.000000, 190.885, 0.991171, 158.031, 0.992667, 140.000, 0.988816, 172.673, 0.990505, 197.573, 0.988423, 230.234, 0.989188, 259.336, 0.989017, 232.641, 0.989353, 237.312, 0.986489, 238.812, 0.987882, 198.581, 0.986510, 107.117, 0.986937, 117.986, 0.989340
    38,07/08/2018 00:47:31,31,301.561, 270.140, 0.993675, 235.329, 0.994347, 198.672, 0.993577, 163.182, 0.994413, 162.814, 0.994249, 172.290, 0.993309, 186.817, 0.992138, 196.442, 1.000000, 190.505, 0.990725, 157.568, 0.993690, 139.600, 0.988221, 172.285, 0.989329, 197.370, 0.987679, 229.942, 0.987549, 258.377, 0.989315, 232.013, 0.986822, 236.774, 0.986189, 238.313, 0.987480, 198.047, 0.985537, 106.662, 0.985260, 117.939, 0.988088
    39,07/08/2018 00:50:18,31,301.503, 270.811, 0.993524, 235.782, 0.995483, 198.736, 0.995091, 163.615, 0.994800, 163.004, 0.995518, 172.446, 0.994908, 186.648, 0.993652, 196.293, 1.000000, 190.264, 0.992485, 157.420, 0.994001, 139.709, 0.991035, 172.244, 0.992740, 197.466, 0.990742, 230.109, 0.990348, 259.021, 0.991676, 232.291, 0.989434, 237.079, 0.990439, 238.423, 0.988595, 198.523, 0.988253, 107.048, 0.989129, 118.044, 0.991971
    40,07/08/2018 00:53:04,31,301.424, 270.883, 0.993911, 235.342, 0.996340, 198.484, 0.996201, 163.544, 0.995310, 162.902, 0.995770, 172.578, 0.995226, 186.946, 0.994204, 196.306, 1.000000, 190.502, 0.992121, 157.506, 0.994328, 139.664, 0.990243, 172.282, 0.992859, 197.034, 0.989234, 229.668, 0.990262, 258.546, 0.991613, 231.896, 0.990114, 236.468, 0.990064, 238.469, 0.989540, 198.136, 0.988751, 106.956, 0.989661, 117.927, 0.992146
    41,07/08/2018 00:55:50,31,301.434, 270.804, 0.996296, 235.998, 0.997685, 198.829, 0.996884, 163.398, 0.996610, 163.107, 0.997269, 172.475, 0.996276, 186.700, 0.995893, 196.803, 1.000000, 190.562, 0.993744, 157.712, 0.996517, 139.845, 0.993367, 172.440, 0.994455, 197.183, 0.992609, 230.040, 0.993140, 258.891, 0.994091, 232.356, 0.990808, 236.951, 0.990084, 238.690, 0.991113, 198.644, 0.988537, 107.026, 0.990569, 118.171, 0.991969
    42,07/08/2018 00:58:36,31,301.370, 271.373, 0.995661, 236.283, 0.997569, 199.201, 0.996433, 163.709, 0.996451, 163.561, 0.996532, 172.982, 0.995924, 187.510, 0.995221, 197.165, 1.000000, 191.020, 0.994309, 157.931, 0.996038, 139.911, 0.992097, 172.500, 0.993890, 197.610, 0.991529, 230.569, 0.992373, 259.243, 0.993120, 232.601, 0.989751, 237.095, 0.989387, 238.789, 0.990079, 198.562, 0.991387, 106.971, 0.990797, 117.906, 0.992096
    43,07/08/2018 01:01:23,31,301.340, 272.286, 0.994666, 237.058, 0.996902, 199.325, 0.995999, 164.271, 0.996302, 163.904, 0.996633, 173.250, 0.995677, 187.727, 0.994281, 197.528, 1.000000, 191.372, 0.992564, 157.979, 0.995093, 140.008, 0.991420, 172.926, 0.993126, 197.927, 0.989588, 230.092, 0.991383, 259.125, 0.992315, 232.733, 0.990662, 237.659, 0.987391, 238.937, 0.988067, 199.152, 0.988844, 107.311, 0.989203, 118.112, 0.991892
    44,07/08/2018 01:04:09,31,301.321, 272.420, 0.995241, 236.710, 0.995864, 199.804, 0.996540, 164.291, 0.995338, 163.524, 0.996662, 173.167, 0.995492, 187.633, 0.994692, 197.439, 1.000000, 191.400, 0.992205, 158.336, 0.994337, 140.105, 0.992004, 172.844, 0.992046, 197.670, 0.991036, 230.792, 0.991738, 259.490, 0.992154, 232.830, 0.991707, 237.731, 0.990708, 238.857, 0.989749, 198.602, 0.988368, 107.155, 0.991151, 117.880, 0.991670
    45,07/08/2018 01:06:55,31,301.292, 271.853, 0.994529, 236.794, 0.994939, 199.871, 0.994407, 164.049, 0.994363, 163.543, 0.994795, 173.106, 0.995403, 187.441, 0.993209, 196.989, 1.000000, 190.989, 0.991207, 157.794, 0.993787, 140.012, 0.989702, 172.630, 0.990337, 197.485, 0.988421, 230.461, 0.989171, 259.237, 0.990670, 232.461, 0.988522, 237.115, 0.987478, 238.742, 0.988143, 198.596, 0.988393, 107.066, 0.989321, 118.138, 0.991101
    46,07/08/2018 01:09:41,31,301.257, 270.782, 0.991534, 235.466, 0.993914, 198.521, 0.993425, 163.341, 0.993544, 162.832, 0.993863, 172.392, 0.991638, 186.543, 0.990674, 196.314, 1.000000, 190.131, 0.988472, 157.544, 0.991737, 139.510, 0.985777, 172.337, 0.988350, 197.083, 0.986942, 229.750, 0.986841, 258.134, 0.989279, 232.176, 0.986331, 236.790, 0.984401, 238.368, 0.984616, 198.527, 0.985977, 106.770, 0.984777, 117.737, 0.990480
    47,07/08/2018 01:12:26,31,301.260, 271.461, 0.991113, 236.231, 0.993477, 198.818, 0.993413, 163.621, 0.994510, 163.077, 0.993747, 172.109, 0.992787, 186.982, 0.992543, 196.855, 1.000000, 190.617, 0.990124, 157.613, 0.992566, 139.752, 0.988327, 172.598, 0.989447, 197.440, 0.986574, 230.170, 0.986855, 259.028, 0.989180, 232.376, 0.987420, 237.119, 0.985711, 239.026, 0.986093, 198.725, 0.985302, 106.954, 0.985936, 117.821, 0.989540
    48,07/08/2018 01:15:13,31,301.268, 270.569, 0.991650, 235.360, 0.994067, 198.747, 0.992281, 163.301, 0.992071, 162.926, 0.993167, 172.239, 0.992211, 186.895, 0.991167, 196.484, 1.000000, 190.004, 0.989000, 157.542, 0.992646, 139.513, 0.987306, 172.425, 0.989616, 197.199, 0.986773, 229.741, 0.984595, 258.774, 0.989631, 232.284, 0.986468, 236.609, 0.988389, 238.248, 0.987963, 198.080, 0.986084, 106.817, 0.988205, 117.785, 0.988714
    49,07/08/2018 01:17:59,31,301.236, 270.291, 0.991480, 235.029, 0.993557, 198.041, 0.992498, 163.158, 0.992053, 162.255, 0.993134, 172.448, 0.991667, 186.402, 0.989796, 196.123, 1.000000, 190.255, 0.987421, 157.401, 0.991801, 139.438, 0.986460, 172.179, 0.986730, 196.952, 0.985697, 229.960, 0.985786, 258.374, 0.987796, 232.128, 0.987469, 236.870, 0.985164, 238.183, 0.985963, 198.221, 0.985611, 106.888, 0.985608, 117.665, 0.989062
    50,07/08/2018 01:20:45,31,301.245, 270.395, 0.990913, 235.240, 0.992439, 198.135, 0.991995, 163.280, 0.991753, 163.147, 0.992081, 172.157, 0.991278, 186.768, 0.989848, 196.511, 1.000000, 190.460, 0.985354, 157.526, 0.990496, 139.350, 0.984506, 172.336, 0.986421, 197.240, 0.981554, 229.660, 0.983163, 258.756, 0.986406, 231.836, 0.984111, 236.631, 0.980240, 238.295, 0.980573, 198.041, 0.980651, 106.462, 0.980818, 117.685, 0.983207
    51,07/08/2018 01:23:31,31,301.220, 270.341, 0.991164, 235.358, 0.993216, 198.192, 0.992866, 162.809, 0.991432, 162.314, 0.992598, 171.744, 0.990818, 186.326, 0.990043, 196.386, 1.000000, 190.095, 0.985916, 157.340, 0.991167, 139.403, 0.985346, 172.175, 0.987491, 197.149, 0.985642, 229.908, 0.988201, 258.303, 0.988790, 232.174, 0.986411, 236.852, 0.983664, 238.320, 0.985253, 198.220, 0.986790, 106.843, 0.984336, 117.865, 0.985792
    52,07/08/2018 01:26:17,31,301.215, 271.869, 0.992010, 236.087, 0.993923, 199.862, 0.993859, 163.944, 0.993688, 163.506, 0.994350, 173.012, 0.992931, 187.575, 0.990622, 196.877, 1.000000, 190.965, 0.989292, 157.694, 0.992698, 139.664, 0.986986, 172.383, 0.989872, 197.477, 0.987081, 230.304, 0.987678, 259.038, 0.988848, 232.427, 0.986925, 237.358, 0.985808, 238.455, 0.985480, 198.375, 0.984905, 106.760, 0.985900, 117.621, 0.989736
    53,07/08/2018 01:29:03,31,301.158, 272.400, 0.989173, 236.179, 0.991511, 199.612, 0.991650, 163.955, 0.990686, 163.459, 0.991439, 172.932, 0.989525, 187.589, 0.988118, 197.009, 1.000000, 191.134, 0.983512, 157.871, 0.989093, 139.953, 0.983679, 172.632, 0.986977, 197.544, 0.981140, 230.443, 0.983921, 258.970, 0.983419, 232.569, 0.984343, 237.572, 0.983653, 238.713, 0.983009, 198.912, 0.982684, 106.955, 0.981843, 118.051, 0.985955
    54,07/08/2018 01:31:50,31,301.172, 272.208, 0.990518, 236.834, 0.992370, 199.752, 0.991309, 164.157, 0.991407, 163.697, 0.992804, 173.102, 0.990229, 187.603, 0.988372, 197.040, 1.000000, 191.201, 0.986496, 158.005, 0.989318, 139.891, 0.984957, 172.518, 0.985909, 197.886, 0.982877, 230.553, 0.983192, 259.247, 0.985545, 232.529, 0.983231, 237.543, 0.982623, 238.868, 0.982761, 198.771, 0.983611, 107.039, 0.986110, 118.049, 0.989229
    55,07/08/2018 01:34:35,31,301.077, 272.158, 0.989565, 236.499, 0.991057, 199.795, 0.991358, 164.069, 0.991261, 164.175, 0.990414, 173.559, 0.989027, 187.864, 0.988472, 197.358, 1.000000, 191.207, 0.984480, 158.207, 0.989733, 140.062, 0.983814, 172.997, 0.986695, 197.806, 0.982977, 230.955, 0.982152, 259.250, 0.985035, 232.595, 0.985098, 237.094, 0.983446, 239.194, 0.983748, 198.819, 0.983425, 106.918, 0.984352, 118.066, 0.987120
    56,07/08/2018 01:37:22,31,301.061, 272.290, 0.987767, 236.844, 0.990965, 199.563, 0.989732, 163.903, 0.990087, 163.523, 0.990399, 173.331, 0.988427, 187.553, 0.987378, 197.293, 1.000000, 191.208, 0.984487, 158.000, 0.987165, 139.983, 0.981803, 173.035, 0.983060, 198.131, 0.982156, 230.446, 0.981815, 259.351, 0.983255, 232.705, 0.980399, 237.603, 0.979491, 239.187, 0.979475, 198.812, 0.978669, 107.106, 0.979635, 117.899, 0.983272
    57,07/08/2018 01:40:08,31,300.933, 272.534, 0.989462, 236.544, 0.992650, 199.809, 0.992199, 164.544, 0.990859, 163.597, 0.991514, 172.896, 0.989749, 187.347, 0.989503, 197.518, 1.000000, 190.996, 0.986225, 157.742, 0.989442, 139.813, 0.984280, 172.637, 0.985566, 197.561, 0.983907, 230.368, 0.984564, 258.933, 0.986706, 232.840, 0.983169, 237.013, 0.982028, 238.701, 0.982363, 198.603, 0.980275, 107.012, 0.983420, 117.992, 0.986965
    58,07/08/2018 01:42:54,31,300.837, 271.445, 0.989643, 236.639, 0.991098, 199.410, 0.991563, 163.676, 0.991050, 163.405, 0.990639, 172.656, 0.989213, 187.531, 0.987948, 196.869, 1.000000, 190.559, 0.986445, 157.864, 0.988754, 139.939, 0.983269, 172.683, 0.984503, 197.614, 0.982782, 230.029, 0.983016, 259.273, 0.981758, 232.708, 0.980031, 237.011, 0.979134, 238.869, 0.979271, 198.804, 0.979480, 106.920, 0.980558, 117.974, 0.983669
    59,07/08/2018 01:45:40,31,300.769, 271.442, 0.986779, 236.253, 0.989594, 199.158, 0.988171, 163.687, 0.988028, 163.453, 0.988223, 172.620, 0.987880, 187.135, 0.986364, 196.744, 1.000000, 190.653, 0.981998, 157.785, 0.987385, 140.016, 0.981075, 172.433, 0.984655, 197.437, 0.982668, 230.102, 0.983149, 258.766, 0.983170, 232.116, 0.981394, 237.102, 0.980854, 238.614, 0.979900, 198.778, 0.981505, 106.969, 0.982233, 118.017, 0.986514
    60,07/08/2018 01:48:27,31,300.688, 272.632, 0.988649, 236.547, 0.990037, 199.330, 0.989855, 163.784, 0.989340, 163.635, 0.990060, 173.073, 0.988647, 187.383, 0.987659, 197.229, 1.000000, 191.111, 0.985683, 157.751, 0.990145, 139.959, 0.983504, 172.461, 0.985768, 197.509, 0.984294, 230.656, 0.985779, 259.095, 0.987227, 232.755, 0.983660, 237.444, 0.980749, 239.155, 0.982903, 198.883, 0.981219, 107.038, 0.984232, 118.174, 0.986713
    61,07/08/2018 01:51:13,31,300.630, 273.926, 0.986946, 237.844, 0.989181, 200.721, 0.989981, 164.967, 0.989492, 164.289, 0.990411, 173.711, 0.988288, 187.991, 0.985962, 197.552, 1.000000, 191.754, 0.982422, 158.238, 0.988063, 140.229, 0.981593, 173.146, 0.984585, 198.062, 0.984105, 230.816, 0.983766, 259.871, 0.983743, 233.033, 0.982276, 237.775, 0.982481, 238.816, 0.983627, 198.957, 0.984105, 106.999, 0.984961, 118.197, 0.987440
    62,07/08/2018 01:53:59,31,300.548, 272.346, 0.987198, 236.690, 0.989747, 199.717, 0.989241, 164.570, 0.987869, 163.773, 0.988516, 172.880, 0.988062, 187.539, 0.985860, 196.781, 1.000000, 190.990, 0.983078, 157.972, 0.986653, 140.145, 0.980856, 172.739, 0.981469, 197.872, 0.979722, 230.384, 0.980596, 259.385, 0.980271, 232.708, 0.982157, 237.671, 0.979780, 239.189, 0.978939, 198.878, 0.977209, 107.024, 0.979410, 118.122, 0.983042
    63,07/08/2018 01:56:46,31,300.499, 273.168, 0.988260, 237.249, 0.990386, 200.161, 0.988614, 164.396, 0.989096, 164.092, 0.988624, 173.419, 0.987564, 187.848, 0.986039, 197.747, 1.000000, 191.445, 0.983507, 158.246, 0.987577, 140.056, 0.980861, 172.928, 0.983687, 198.232, 0.978685, 230.821, 0.983068, 259.558, 0.983312, 233.071, 0.979589, 237.639, 0.976942, 238.973, 0.977421, 199.148, 0.977330, 107.112, 0.977772, 118.170, 0.983122
    64,07/08/2018 01:59:32,31,300.480, 272.285, 0.985562, 237.036, 0.987855, 199.648, 0.986979, 164.163, 0.985564, 163.569, 0.986972, 172.944, 0.983551, 187.925, 0.984070, 197.101, 1.000000, 191.313, 0.980736, 158.151, 0.985331, 140.062, 0.977617, 172.544, 0.978214, 198.050, 0.976520, 230.469, 0.976935, 259.303, 0.977754, 232.808, 0.978151, 237.633, 0.975383, 238.888, 0.976265, 198.737, 0.978471, 106.945, 0.977097, 117.901, 0.983544
    65,07/08/2018 02:02:18,31,300.386, 272.810, 0.986816, 237.647, 0.987759, 200.820, 0.988034, 164.678, 0.987833, 164.144, 0.988099, 173.857, 0.984662, 188.254, 0.984733, 197.825, 1.000000, 192.046, 0.980823, 158.348, 0.985668, 140.431, 0.979309, 173.144, 0.981444, 198.480, 0.978540, 231.272, 0.978932, 260.128, 0.980639, 233.084, 0.976582, 237.946, 0.977992, 239.115, 0.978265, 198.816, 0.978531, 106.969, 0.977774, 118.183, 0.982887
    66,07/08/2018 02:05:04,31,300.359, 272.499, 0.984434, 237.934, 0.986520, 200.054, 0.984793, 164.168, 0.984409, 163.972, 0.984687, 173.474, 0.983887, 187.554, 0.980881, 197.290, 1.000000, 191.002, 0.978531, 158.017, 0.983705, 139.820, 0.976815, 172.977, 0.979233, 197.818, 0.975283, 230.591, 0.979346, 259.443, 0.979548, 232.867, 0.975987, 237.508, 0.973564, 239.144, 0.978255, 199.096, 0.974878, 107.105, 0.977291, 118.023, 0.979440
    67,07/08/2018 02:07:50,31,300.342, 272.674, 0.986367, 237.458, 0.987807, 200.007, 0.987339, 164.374, 0.986509, 163.559, 0.987876, 173.547, 0.986328, 187.902, 0.985561, 197.413, 1.000000, 191.464, 0.983381, 158.200, 0.986450, 140.274, 0.980782, 173.065, 0.982485, 197.930, 0.979168, 230.695, 0.980940, 259.557, 0.979951, 232.784, 0.977960, 237.853, 0.976420, 239.036, 0.979531, 198.964, 0.979444, 107.123, 0.981197, 118.033, 0.984630